GW3666 Weather Reports


time (UTC)temp
C
wind
direction
speed
KPH
gust
KPH
rain 1hr
cm
rain 24hr
cm
rain mn
cm
humidity
%
barometer
mb
20260507025851 13 300 4.8 4.8 0.00 0.00 0.00 85 1020.7
20260507025349 13 301 1.6 3.2 0.00 0.00 0.00 85 1020.7
20260507024847 13 185 3.2 4.8 0.00 0.00 0.00 85 1020.4
20260507024344 13 324 8.0 9.7 0.00 0.00 0.00 84 1020.4
20260507023839 14 312 0.0 0.0 0.00 0.00 0.00 84 1020.3
20260507023336 13 56 0.0 0.0 0.00 0.00 0.00 84 1020.4
20260507022834 14 351 1.6 3.2 0.00 0.00 0.00 84 1020.3
20260507022330 14 347 0.0 1.6 0.00 0.00 0.00 83 1020.2
20260507021826 14 319 3.2 4.8 0.00 0.00 0.00 83 1020.6
20260507021322 14 284 1.6 1.6 0.00 0.00 0.00 83 1020.4
20260507020820 14 282 4.8 4.8 0.00 0.00 0.00 83 1020.4
20260507020316 14 323 4.8 8.0 0.00 0.00 0.00 82 1020.3
20260507015814 14 332 4.8 4.8 0.00 0.00 0.00 82 1020.6
20260507015311 14 308 9.7 11.3 0.00 0.00 0.00 81 1020.2
20260507014808 15 240 0.0 1.6 0.00 0.00 0.00 82 1020.4
20260507014304 15 322 3.2 4.8 0.00 0.00 0.00 82 1020.2
20260507013800 15 308 4.8 8.0 0.00 0.00 0.00 81 1020.3
20260507013258 15 323 8.0 11.3 0.00 0.00 0.00 81 1020.1
20260507012755 15 310 1.6 3.2 0.00 0.00 0.00 81 1020.3
20260507012250 15 323 8.0 9.7 0.00 0.00 0.00 80 1020.4
20260507011749 15 345 0.0 1.6 0.00 0.00 0.00 80 1020.1
20260507011245 15 280 0.0 1.6 0.00 0.00 0.00 80 1020.1
20260507010744 15 312 3.2 3.2 0.00 0.00 0.00 79 1020.1
20260507010241 15 289 1.6 1.6 0.00 0.00 0.00 80 1020.2
20260507005738 15 311 1.6 1.6 0.00 0.00 0.00 81 1020.3
20260507005235 15 41 3.2 4.8 0.00 0.00 0.00 80 1020.3
20260507004731 16 300 3.2 4.8 0.00 0.00 0.00 79 1020.3
20260507004229 16 295 3.2 3.2 0.00 0.00 0.00 78 1020.4
20260507003725 16 300 4.8 4.8 0.00 0.00 0.00 77 1020.0
20260507003220 16 230 0.0 0.0 0.00 0.00 0.00 79 1020.1
20260507002717 15 321 3.2 3.2 0.00 0.00 0.00 79 1020.4
20260507002213 16 316 3.2 8.0 0.00 0.00 0.00 81 1020.4
20260507001710 16 295 11.3 12.9 0.00 0.00 0.00 79 1020.3
20260507001207 16 288 6.4 11.3 0.00 0.00 0.00 78 1020.6
20260507000703 16 303 9.7 14.5 0.00 0.00 0.00 78 1020.6
20260507000159 16 309 1.6 3.2 0.00 0.00 0.00 79 1020.2
20260506235656 16 324 6.4 8.0 0.00 0.00 0.00 78 1020.3
20260506235151 16 10 6.4 8.0 0.00 0.00 0.00 78 1020.3
20260506234649 16 322 8.0 16.1 0.00 0.00 0.00 78 1020.2
20260506234146 17 326 9.7 12.9 0.00 0.00 0.00 76 1020.2
20260506233643 17 309 1.6 3.2 0.00 0.00 0.00 77 1020.2
20260506233140 16 112 3.2 3.2 0.00 0.00 0.00 76 1020.2
20260506232636 17 215 1.6 1.6 0.00 0.00 0.00 76 1020.3
20260506232131 17 305 6.4 9.7 0.00 0.00 0.00 76 1020.2
20260506231629 17 144 1.6 3.2 0.00 0.00 0.00 75 1020.0
20260506231127 17 316 4.8 9.7 0.00 0.00 0.00 73 1020.4
20260506230624 17 26 1.6 1.6 0.00 0.00 0.00 77 1020.2
20260506230121 17 320 4.8 8.0 0.00 0.00 0.00 76 1020.2
20260506225617 17 298 1.6 3.2 0.00 0.00 0.00 76 1020.3
20260506225114 17 113 1.6 4.8 0.00 0.00 0.00 76 1020.4
20260506224610 17 290 4.8 4.8 0.00 0.00 0.00 76 1020.1
20260506224107 17 357 3.2 3.2 0.00 0.00 0.00 76 1020.2
20260506223603 16 0 0.0 0.0 0.00 0.00 0.00 76 1020.3
20260506223059 16 332 6.4 8.0 0.00 0.00 0.00 78 1020.4
20260506222556 16 276 6.4 8.0 0.00 0.00 0.00 77 1020.3
20260506222052 16 303 4.8 8.0 0.00 0.00 0.00 79 1020.6
20260506221550 16 275 8.0 9.7 0.00 0.00 0.00 77 1020.4
20260506221048 16 227 6.4 8.0 0.00 0.00 0.00 76 1020.4
20260506220544 17 317 4.8 8.0 0.00 0.00 0.00 77 1020.7
20260506220039 17 108 1.6 3.2 0.00 0.00 0.00 75 1020.6
20260506215537 17 293 1.6 1.6 0.00 0.00 0.00 76 1020.8
20260506215032 17 129 4.8 4.8 0.00 0.00 0.00 74 1020.4
20260506214529 17 327 3.2 4.8 0.00 0.00 0.00 75 1020.8
20260506214027 17 32 0.0 1.6 0.00 0.00 0.00 75 1020.8
20260506213525 17 153 3.2 3.2 0.00 0.00 0.00 75 1020.7
20260506213022 17 301 1.6 1.6 0.00 0.00 0.00 77 1020.4
20260506212518 17 152 1.6 1.6 0.00 0.00 0.00 76 1020.7
20260506212013 17 90 0.0 1.6 0.00 0.00 0.00 76 1020.6
20260506211509 17 140 3.2 3.2 0.00 0.00 0.00 76 1020.6
20260506211007 17 67 6.4 9.7 0.00 0.00 0.00 75 1020.8
20260506210503 17 325 3.2 4.8 0.00 0.00 0.00 77 1020.9
20260506205959 17 336 9.7 14.5 0.00 0.00 0.00 77 1020.9
20260506205455 17 122 4.8 8.0 0.00 0.00 0.00 78 1020.7
20260506204946 17 162 4.8 8.0 0.00 0.00 0.00 79 1020.8
20260506204444 16 230 0.0 1.6 0.00 0.00 0.00 81 1020.8
20260506203941 15 10 6.4 8.0 0.00 0.00 0.00 82 1020.7
20260506203438 16 87 3.2 8.0 0.00 0.00 0.00 82 1020.8
20260506202935 16 211 1.6 1.6 0.00 0.00 0.00 82 1020.6
20260506202433 16 298 3.2 4.8 0.00 0.00 0.00 82 1020.6
20260506201929 16 270 11.3 14.5 0.00 0.00 0.00 80 1020.6
20260506201427 16 247 3.2 4.8 0.00 0.00 0.00 83 1020.7
20260506200923 16 207 6.4 9.7 0.00 0.00 0.00 80 1020.4
20260506200419 16 227 4.8 8.0 0.00 0.00 0.00 83 1020.3
20260506195916 15 174 3.2 4.8 0.00 0.00 0.00 84 1020.6
20260506195413 16 231 8.0 11.3 0.00 0.00 0.00 83 1020.4
20260506194909 16 279 8.0 9.7 0.00 0.00 0.00 83 1020.4
20260506194407 16 329 6.4 8.0 0.00 0.00 0.00 84 1020.4
20260506193904 16 199 4.8 8.0 0.00 0.00 0.00 83 1020.4
20260506193401 16 215 1.6 3.2 0.00 0.00 0.00 89 1020.2
20260506192856 15 194 3.2 3.2 0.00 0.00 0.00 87 1020.3
20260506192353 15 354 4.8 8.0 0.00 0.00 0.00 86 1020.4
20260506191850 15 206 4.8 4.8 0.00 0.00 0.00 86 1020.6
20260506191346 16 262 9.7 11.3 0.00 0.00 0.00 86 1020.7
20260506190838 16 202 6.4 12.9 0.00 0.00 0.00 86 1020.4
20260506190334 16 329 8.0 9.7 0.00 0.00 0.00 85 1020.4
20260506185831 15 157 4.8 4.8 0.00 0.00 0.00 87 1020.4
20260506185328 15 301 17.7 22.5 0.00 0.00 0.00 86 1020.2
20260506184825 15 23 4.8 8.0 0.00 0.00 0.00 87 1020.2
20260506184323 15 216 1.6 1.6 0.00 0.00 0.00 86 1019.8
20260506183820 15 6 11.3 12.9 0.00 0.00 0.00 86 1019.9
20260506183315 16 323 6.4 8.0 0.00 0.00 0.00 85 1019.8
20260506182813 15 326 1.6 1.6 0.00 0.00 0.00 87 1019.8
20260506182309 15 336 6.4 9.7 0.00 0.00 0.00 87 1019.8
20260506181801 16 281 4.8 4.8 0.00 0.00 0.00 86 1020.1
20260506181259 15 311 4.8 4.8 0.00 0.00 0.00 87 1020.1
20260506180756 15 340 1.6 1.6 0.00 0.00 0.00 86 1020.2
20260506180252 15 321 3.2 3.2 0.00 0.00 0.00 88 1019.7
20260506175748 15 301 3.2 4.8 0.00 0.00 0.00 88 1019.8
20260506175245 15 326 0.0 0.0 0.00 0.00 0.00 90 1019.8
20260506174743 14 344 1.6 3.2 0.00 0.00 0.00 93 1019.8
20260506174239 13 332 4.8 4.8 0.00 0.00 0.00 94 1019.9
20260506173737 13 311 0.0 1.6 0.00 0.00 0.00 95 1020.0
20260506173234 13 333 0.0 1.6 0.00 0.00 0.00 95 1020.0
20260506172731 13 269 6.4 8.0 0.00 0.00 0.00 95 1020.0
20260506172227 13 301 3.2 3.2 0.00 0.00 0.00 95 1020.1
20260506171725 13 268 4.8 4.8 0.00 0.00 0.00 95 1020.2
20260506171222 13 340 4.8 4.8 0.00 0.00 0.00 95 1020.0
20260506170720 13 323 3.2 4.8 0.00 0.00 0.00 96 1020.1
20260506170216 13 335 3.2 3.2 0.00 0.00 0.00 95 1020.0
20260506165715 13 315 4.8 8.0 0.00 0.00 0.00 95 1020.1
20260506165211 13 333 3.2 3.2 0.00 0.00 0.00 95 1020.0
20260506164708 13 319 0.0 0.0 0.00 0.00 0.00 95 1019.7
20260506164205 13 317 4.8 4.8 0.00 0.00 0.00 94 1019.9
20260506163702 13 324 6.4 8.0 0.00 0.00 0.00 93 1019.7
20260506163157 13 345 3.2 4.8 0.00 0.00 0.00 92 1019.8
20260506162653 13 206 0.0 0.0 0.00 0.00 0.00 92 1019.5
20260506162151 13 274 0.0 0.0 0.00 0.00 0.00 94 1019.6
20260506161648 13 346 1.6 3.2 0.00 0.00 0.00 94 1019.8
20260506161144 13 352 0.0 0.0 0.00 0.00 0.00 95 1019.6
20260506160642 12 337 1.6 4.8 0.00 0.00 0.00 94 1019.9
20260506160139 12 316 0.0 0.0 0.00 0.00 0.00 95 1019.8
20260506155637 12 330 0.0 0.0 0.00 0.00 0.00 95 1019.8
20260506155134 12 239 0.0 0.0 0.00 0.00 0.00 94 1019.7
20260506153236 12 270 0.0 0.0 0.00 0.00 0.00 94 1019.7
20260506152733 12 314 6.4 9.7 0.00 0.00 0.00 94 1019.5
20260506152230 12 282 0.0 0.0 0.00 0.00 0.00 95 1019.8
20260506151730 12 265 0.0 0.0 0.00 0.00 0.00 94 1019.8
20260506151226 12 227 0.0 0.0 0.00 0.00 0.00 95 1019.6
20260506150722 12 237 0.0 0.0 0.00 0.00 0.00 95 1019.9
20260506150219 12 247 0.0 0.0 0.00 0.00 0.00 95 1019.7
20260506145717 12 297 0.0 0.0 0.00 0.00 0.00 95 1019.6
20260506145213 12 303 1.6 3.2 0.00 0.00 0.00 95 1019.6
20260506144710 12 325 0.0 0.0 0.00 0.00 0.00 95 1019.4
20260506144207 12 103 0.0 0.0 0.00 0.00 0.00 96 1019.1
20260506143705 12 72 0.0 0.0 0.00 0.00 0.00 96 1019.1
20260506143202 12 145 3.2 3.2 0.00 0.00 0.00 96 1019.4
20260506142701 12 101 0.0 0.0 0.00 0.00 0.00 97 1019.6
20260506142158 12 328 0.0 0.0 0.00 0.00 0.00 98 1019.4
20260506141656 12 318 0.0 0.0 0.00 0.00 0.00 98 1019.5
20260506141154 12 15 0.0 0.0 0.00 0.00 0.00 98 1019.5
20260506140651 12 350 0.0 0.0 0.00 0.00 0.00 98 1019.7
20260506140148 12 101 0.0 0.0 0.00 0.00 0.00 98 1019.3
20260506135645 12 287 0.0 0.0 0.00 0.00 0.00 98 1019.6
20260506135141 12 341 0.0 0.0 0.00 0.00 0.00 98 1019.6
20260506134638 12 209 0.0 0.0 0.00 0.00 0.00 98 1019.6
20260506134134 12 324 0.0 0.0 0.00 0.00 0.00 98 1019.6
20260506133631 12 309 0.0 0.0 0.00 0.00 0.00 98 1019.4
20260506133128 12 307 0.0 0.0 0.00 0.00 0.00 98 1019.5
20260506132626 12 314 0.0 0.0 0.00 0.00 0.00 98 1019.5
20260506132122 12 321 0.0 0.0 0.00 0.00 0.00 98 1019.2
20260506131620 12 285 0.0 0.0 0.00 0.00 0.00 98 1018.9
20260506131116 12 317 0.0 0.0 0.00 0.00 0.00 98 1019.1
20260506130613 12 299 0.0 0.0 0.00 0.00 0.00 98 1019.0
20260506130110 12 8 0.0 0.0 0.00 0.00 0.00 98 1019.0
20260506125609 12 342 0.0 0.0 0.00 0.00 0.00 98 1019.0
20260506125106 12 342 0.0 0.0 0.00 0.00 0.00 98 1019.1
20260506124603 12 198 0.0 0.0 0.00 0.00 0.00 98 1019.0
20260506124101 12 315 0.0 0.0 0.00 0.00 0.00 98 1019.0
20260506123559 12 309 0.0 0.0 0.00 0.00 0.00 98 1018.9
20260506123057 12 258 0.0 0.0 0.00 0.00 0.00 98 1018.8
20260506122553 12 314 0.0 0.0 0.00 0.00 0.00 98 1018.8
20260506122051 12 304 0.0 0.0 0.00 0.00 0.00 98 1018.9
20260506121549 12 313 0.0 0.0 0.00 0.00 0.00 97 1018.7
20260506121044 12 316 0.0 0.0 0.00 0.00 0.00 97 1018.7
20260506120543 12 314 0.0 0.0 0.00 0.00 0.00 97 1018.6
20260506120040 12 332 0.0 0.0 0.00 0.00 0.00 97 1018.6
20260506115538 12 295 0.0 0.0 0.00 0.00 0.00 97 1018.7
20260506115036 12 320 0.0 0.0 0.00 0.00 0.00 97 1018.5
20260506114533 12 309 0.0 0.0 0.00 0.00 0.00 97 1018.6
20260506114032 12 321 0.0 0.0 0.00 0.00 0.00 97 1018.6
20260506113529 12 306 0.0 0.0 0.00 0.00 0.00 97 1018.6
20260506113026 12 349 0.0 0.0 0.00 0.00 0.00 97 1018.7
20260506112522 12 332 0.0 0.0 0.00 0.00 0.00 96 1018.6
20260506112020 12 327 0.0 0.0 0.00 0.00 0.00 96 1018.5
20260506111518 12 254 0.0 0.0 0.00 0.00 0.00 96 1018.5
20260506111015 12 293 0.0 0.0 0.00 0.00 0.00 96 1018.5
20260506110513 12 315 0.0 0.0 0.00 0.00 0.00 96 1018.5
20260506110010 12 337 0.0 0.0 0.00 0.00 0.00 96 1018.4
20260506105505 12 139 0.0 0.0 0.00 0.00 0.00 95 1018.4
20260506105003 12 96 0.0 0.0 0.00 0.00 0.00 95 1018.3
20260506104501 12 346 0.0 0.0 0.00 0.00 0.00 95 1018.3
20260506103959 12 309 0.0 0.0 0.00 0.00 0.00 95 1018.4
20260506103455 12 333 0.0 0.0 0.00 0.00 0.00 95 1018.4
20260506102952 12 90 0.0 0.0 0.00 0.00 0.00 95 1018.0
20260506102450 12 316 0.0 0.0 0.00 0.00 0.00 96 1018.3
20260506101948 12 305 0.0 0.0 0.00 0.00 0.00 96 1018.1
20260506101444 12 350 0.0 0.0 0.00 0.00 0.00 97 1018.1
20260506100941 12 321 0.0 0.0 0.00 0.00 0.00 97 1017.9
20260506100439 12 277 0.0 0.0 0.00 0.00 0.00 97 1017.9
20260506095937 12 276 0.0 0.0 0.00 0.00 0.00 97 1017.8
20260506095436 12 38 0.0 0.0 0.00 0.00 0.00 98 1017.8
20260506094931 12 314 0.0 0.0 0.00 0.00 0.00 98 1017.9
20260506094430 12 276 0.0 0.0 0.00 0.00 0.00 99 1017.7
20260506093927 12 309 0.0 0.0 0.00 0.00 0.00 99 1017.8
20260506093425 12 2 0.0 0.0 0.00 0.00 0.00 99 1017.8
20260506092923 11 20 0.0 0.0 0.00 0.00 0.00 99 1017.9
20260506092421 11 20 0.0 0.0 0.00 0.00 0.00 99 1017.8
20260506091917 11 20 0.0 0.0 0.00 0.00 0.00 99 1017.9
20260506091415 11 20 0.0 0.0 0.00 0.00 0.00 99 1017.7
20260506090912 11 304 0.0 0.0 0.00 0.00 0.00 99 1017.8
20260506090409 11 303 0.0 0.0 0.00 0.00 0.00 99 1017.7
20260506085906 11 303 0.0 0.0 0.00 0.00 0.00 99 1017.9
20260506085403 11 344 0.0 0.0 0.00 0.00 0.00 99 1017.8
20260506084859 11 344 0.0 0.0 0.00 0.00 0.00 99 1017.4
20260506084356 11 345 0.0 0.0 0.00 0.00 0.00 99 1017.3
20260506083852 11 35 0.0 0.0 0.00 0.00 0.00 99 1017.6
20260506083350 11 293 0.0 0.0 0.00 0.00 0.00 99 1017.4
20260506082847 11 324 0.0 0.0 0.00 0.00 0.00 99 1017.5
20260506082343 10 345 0.0 0.0 0.00 0.00 0.00 99 1017.5
20260506081834 10 345 0.0 0.0 0.00 0.00 0.00 99 1017.3
20260506081332 10 345 0.0 0.0 0.00 0.00 0.00 99 1017.4
20260506080829 10 345 0.0 0.0 0.00 0.00 0.00 98 1017.5
20260506080325 11 334 0.0 0.0 0.00 0.00 0.00 99 1017.3
20260506073310 11 1 0.0 0.0 0.00 0.00 0.00 98 1017.1
20260506072806 11 38 0.0 0.0 0.00 0.00 0.00 98 1017.0
20260506072306 11 317 0.0 0.0 0.00 0.00 0.00 97 1016.9
20260506071802 11 358 0.0 0.0 0.00 0.00 0.00 97 1016.9
20260506071300 11 330 0.0 0.0 0.00 0.00 0.00 98 1017.1
20260506070756 11 292 0.0 0.0 0.00 0.00 0.00 97 1016.8
20260506070253 11 298 0.0 0.0 0.00 0.00 0.00 97 1016.7
20260506062230 12 57 0.0 0.0 0.00 0.00 0.00 99 1016.7
20260506061726 11 12 0.0 0.0 0.00 0.00 0.00 99 1016.7
20260506061223 11 358 0.0 0.0 0.00 0.00 0.00 99 1016.3
20260506060722 11 229 0.0 0.0 0.00 0.00 0.00 99 1016.5
20260506060218 11 352 0.0 0.0 0.00 0.00 0.00 99 1016.1
20260506051151 10 304 0.0 0.0 0.00 0.00 0.00 99 1016.2
20260506050649 10 304 0.0 0.0 0.00 0.00 0.00 99 1016.1
20260506050146 10 304 0.0 0.0 0.00 0.00 0.00 99 1016.4
20260506044637 11 257 0.0 0.0 0.00 0.00 0.00 99 1016.1
20260506044134 11 257 0.0 0.0 0.00 0.00 0.00 98 1016.4
20260506043631 11 257 0.0 0.0 0.00 0.00 0.00 98 1016.2
20260506043129 11 257 0.0 0.0 0.00 0.00 0.00 98 1016.1
20260506042628 11 257 0.0 0.0 0.00 0.00 0.00 97 1016.2
20260506042125 11 257 0.0 0.0 0.00 0.00 0.00 97 1016.1
20260506041623 12 257 0.0 0.0 0.00 0.00 0.00 97 1015.9
20260506041114 12 257 0.0 0.0 0.00 0.00 0.00 97 1016.0
20260506040612 12 257 0.0 0.0 0.00 0.00 0.00 95 1016.0
20260506040109 12 257 0.0 0.0 0.00 0.00 0.00 94 1015.9
20260506035606 12 257 0.0 0.0 0.00 0.00 0.00 93 1015.9
20260506035102 13 257 0.0 0.0 0.00 0.00 0.00 93 1015.7
20260506034600 13 257 0.0 0.0 0.00 0.00 0.00 92 1015.8
20260506034056 13 257 0.0 0.0 0.00 0.00 0.00 92 1015.6
20260506033554 14 270 0.0 0.0 0.00 0.00 0.00 90 1015.4
20260506033050 14 271 0.0 0.0 0.00 0.00 0.00 90 1015.7
20260506032548 15 318 0.0 0.0 0.00 0.00 0.00 89 1015.5
20260506032044 15 318 0.0 0.0 0.00 0.00 0.00 88 1015.3
20260506031542 15 318 0.0 0.0 0.00 0.00 0.00 87 1015.3
20260506031039 15 318 0.0 0.0 0.00 0.00 0.00 85 1015.2
20260506030537 16 318 0.0 0.0 0.00 0.00 0.00 84 1015.2